Location: New Frontier Mobile Home Park
(32.8448°N, 116.9675°W)
Time: 22:45:35
(UTC+00:00)

Cosmos 2278 - Pass Details

Date: 14 July 2020
Orbit: 838 x 854 km, 71.1° (Epoch: 05 August)

Event Time Altitude Azimuth Distance (km) Brightness Sun altitude
Rises 10:33:15 0° 341° (NNW) 3,427 7.3 -23.6°
Reaches altitude 10° 10:35:43 10° 343° (NNW) 2,488 6.5 -23.3°
Maximum altitude 10:41:26 75° 69° (ENE) 884 3.8 -22.5°
Drops below altitude 10° 10:47:07 10° 155° (SSE) 2,470 5.9 -21.7°
Enters shadow 10:47:40 - 155° (SSE) 2,679 6.1 -21.6°
